Airfield :
LOGIN :

Register | Disclaimer

   EN    FR    IT 

 










Legend :    VFR   Marginal VFR   IFR   Intensive IFR   Very Intensive IFR
Visi :
Ceiling :
>= 8 km
>= 3000ft
5 to 8 km
1000 to 3000 ft
1500m to 5 km
500 to 1000 ft
800 to 1500m
200 to 500 ft
< 800m
< 200 ft
Symbols :   Thunderstorms  Fog  Heavy snow  Heavy precipitations  Wind > 20 kt
SIGMETs :     Misc.  Thunderstorms  Icing  Turbulence  Mountain Waves  Volcanic Ashes






- Airport Elevation : 36 ft
- IATA code : GJL


DAAV - Jijel Ferhat Abbas

CURRENT METAR :
  • 251800Z 14003KT 9999 BKN033 15/06 Q1018

EXPIRED METARs :
  • 251700Z 28002KT 9999 BKN033 16/08 Q1018
  • 251600Z 35003KT 9999 SCT023 18/08 Q1018

TAF TAF DAAV
Valid from the 25 at 18:00 until the 26 at 18:00 UTC


251700Z 2518/2618 17008KT 9999 FEW026 BKN033
BECMG 2600/2603 26012KT
PROB30
TEMPO 2601/2608 5000 -RA FEW026TCU
TEMPO 2612/2618 5000 RA FEW023CB



MET'MAP, your aeronautical weather chart ! - Copyright ORBIFLY December 2007 - Disclaimer

ORBIFLY MET'MAP TEAM :

Programming & Development : Alexandra Zaïnal
Concept & original design : Baudouin d'Aumeries
Assistance for programming : Marc-Olivier Méhu
Technical & hardware support : Manuel Goepfert

Contact : metmap@orbifly.com




SOURCES & CREDITS :

   NOAA